#timestamp,LO_Frequency,Hit,StdDev 
1619488815.6,286047003.7,N
1619488835.4,286047000.1,N
1619488855.2,286046998.3,N
1619488875.1,286047001.2,N
1619488876.0,286047001.2,N
1619488895.8,286046998.7,N
1619488915.7,286046999.2,N
1619488935.5,286046997.3,N
1619488955.3,286046994.9,Y
1619488975.2,286046997.8,P
1619488995.0,286046997.3,N
1619488995.9,286046997.3,N
1619489015.7,286046996.7,N
1619489035.6,286046996.7,N
1619489055.4,286046997.4,N
1619489075.3,286046997.2,N
1619489095.1,286046996.9,N
1619489096.0,286046996.9,Y
1619489115.8,286047000.7,P
1619489135.7,286047002.8,N
1619489155.5,286047002.5,N
1619489175.4,286047000.2,N
1619489195.2,286046998.1,N
1619489215.0,286047001.2,N
1619489215.9,286047001.2,N
1619489235.8,286047000.9,N
1619489255.6,286047001.2,N
1619489275.4,286046999.0,N
1619489295.3,286046998.6,N
1619489315.1,286046998.1,N
1619489335.9,286047000.9,N
1619489355.7,286047002.0,N
1619489375.2,286047000.2,N
1619489395.1,286047000.3,N
1619489396.0,286047000.3,N
1619489415.8,286046998.1,N
1619489435.6,286047001.1,N
1619489455.5,286046999.9,N
1619489475.3,286047001.4,N
1619489495.2,286047001.6,N
1619489515.9,286047001.7,N
1619489535.7,286047003.2,N
1619489555.6,286047001.5,N
1619489575.4,286047000.1,N
1619489595.2,286047000.3,N
1619489615.1,286047000.9,N
1619489616.0,286047000.9,N
1619489635.8,286047000.5,N
1619489655.7,286047000.3,N
1619489675.5,286046996.6,N
1619489695.3,286046998.5,N
1619489715.2,286047000.7,N
1619489735.0,286046999.2,N
1619489735.9,286046999.2,N
1619489755.7,286047000.8,N
1619489775.6,286047001.0,N
1619489795.4,286047000.8,N
1619489815.3,286047001.9,N
1619489835.1,286047002.7,N
1619489836.0,286047002.7,N
1619489855.8,286047001.7,N
1619489875.7,286047003.5,N
1619489895.5,286047003.1,N
1619489915.3,286047003.7,N
1619489935.2,286047002.5,N
1619489955.0,286047001.6,N
1619489955.9,286047001.6,N
1619489975.8,286047004.1,N
1619489995.6,286047001.9,N
1619490015.4,286047004.3,N
1619490035.3,286047004.3,N
1619490055.1,286047002.8,N
1619490075.9,286047000.4,N
1619490095.7,286047000.9,N
1619490145.6,286046998.1,E
1619490155.5,286047000.3,N
1619490175.3,286047000.7,P
1619490195.2,286047001.2,P
1619490215.9,286047001.1,N
1619490235.7,286047000.2,N
1619490255.6,286046999.9,N
1619490275.4,286047002.5,Y
1619490295.2,286047001.8,P
1619490315.1,286047003.0,P
1619490316.0,286047003.0,N
1619490335.8,286047004.9,Y
1619490355.7,286047004.3,P
1619490375.5,286047000.4,N
1619490395.3,286047000.7,N
1619490415.2,286047000.1,N
1619490435.0,286047002.4,N
1619490435.9,286047002.4,N
1619490455.7,286047003.8,N
1619490475.6,286047001.6,N
1619490495.4,286047000.0,N
1619490515.3,286047000.0,N
1619490535.1,286046999.8,N
1619490536.0,286046999.8,N
1619490555.8,286047000.3,N
1619490575.7,286046998.1,N
1619490595.5,286047000.7,N
1619490615.3,286047002.7,N
1619490635.2,286047000.8,N
1619490655.0,286047000.8,N
1619490655.9,286047000.8,N
1619490675.8,286047000.6,N
1619490695.6,286047002.1,N
1619490715.4,286047002.6,N
1619490735.3,286047002.7,N
1619490755.1,286047001.8,N
1619490775.8,286047001.5,N
1619490795.7,286047001.6,N
1619490815.5,286047002.8,N
1619490835.4,286047000.2,N
1619490855.2,286046998.3,N
1619490875.0,286047000.2,N
1619490875.9,286047000.2,N
1619490895.8,286046998.2,N
1619490915.6,286046998.8,N
1619490935.4,286046999.4,N
1619490955.3,286046999.3,N
1619490975.1,286046997.5,N
1619490995.9,286046995.0,Y
1619491015.7,286046996.0,P
1619491035.5,286046995.2,N
1619491055.4,286046999.5,N
1619491075.2,286046998.1,N
1619491095.0,286046996.7,N
1619491095.9,286046996.7,N
1619491115.8,286046999.1,N
1619491135.6,286046999.5,N
1619491155.5,286046997.4,N
1619491175.3,286046998.5,N
1619491195.1,286046998.7,N
1619491215.9,286047001.0,N
1619491235.7,286046999.8,N
1619491255.6,286047002.5,N
1619491275.4,286047000.5,N
1619491295.2,286047000.6,N
1619491315.1,286047004.4,N
1619491316.0,286047004.4,N
1619491335.8,286047002.5,N
1619491355.6,286047001.5,N
1619491375.5,286046999.7,N
1619491395.3,286047000.6,N
1619491415.2,286047000.0,N
1619491435.9,286047000.1,N
1619491455.7,286046998.2,N
1619491475.6,286046996.5,N
1619491495.4,286046999.5,N
1619491515.2,286046996.5,N
1619491535.1,286046999.5,N
1619491536.0,286046999.5,N
1619491555.8,286046999.0,N
1619491575.7,286046999.6,N
1619491595.5,286046996.9,N
1619491615.3,286046999.2,N
1619491635.2,286046999.6,N
1619491655.0,286046998.2,N
1619491655.9,286046998.2,N
1619491675.8,286047002.4,N
1619491695.6,286047000.9,N
1619491715.4,286047000.6,N
1619491735.3,286047000.2,N
1619491755.1,286047000.8,N
1619491775.9,286046998.1,N
1619491795.7,286047002.1,N
1619491815.5,286046998.3,N
1619491835.4,286046999.2,N
1619491855.2,286046996.5,N
1619491875.0,286046997.8,N
1619491875.9,286046997.8,N
1619491895.8,286046997.0,N
1619491915.6,286046997.2,N
1619491935.5,286046996.7,N
1619491955.3,286046997.5,N
1619491975.1,286046997.2,N
1619491995.9,286046996.7,N
1619492015.7,286046999.9,N
1619492035.5,286046998.5,N
1619492055.4,286047000.2,N
1619492075.2,286047002.4,N
1619492095.1,286046998.3,N
1619492096.0,286046998.3,N
1619492115.8,286047000.8,N
1619492135.6,286046996.5,N
1619492155.5,286046999.0,N
1619492175.3,286046997.6,N
1619492195.1,286046997.5,N
1619492215.9,286046999.5,N
1619492235.7,286046997.2,N
1619492255.6,286046998.3,N
1619492275.4,286046998.7,N
1619492295.2,286046998.4,N
1619492315.1,286046999.3,N
1619492316.0,286046999.3,N
1619492335.8,286046997.0,N
1619492355.6,286046999.1,N
1619492375.5,286046997.7,N
1619492395.3,286046996.1,N
